Content
SEND FEEDBACK

Daily
Averages
Monthly
Summary
Mexico

SAN BALTAZAR TETELA, PUEBLA


Home > North America > Mexico > Puebla
Elevation: 6759 feet     Latitude: 18 54N     Longitude: 098 10W

WEATHER
 
SELECT A DAY
Number of Records: 125,466;   Date Range: 1/1/95 - 12/19/14
 
SHARE

PRINT THIS DATA

[ ← Previous Day ]
WEATHER ALMANAC - MARCH 23, 2013
[ Next Day → ]
[ °C ]   °F
Weather ElementAverageHighLow
Temperature66.8 °F80.6 °F (3:43 pm)48.2 °F (4:43 am)
Dewpoint30.3 °F44 °F (2:50 pm)23 °F (12:43 pm)
Humidity25.4 %50 % (4:43 am)11 % (5:40 pm)
Barometer30.07 in30.32 in (8:40 am)29.55 in (5:40 pm)
Wind Speed7.5 mph21.9 mph (5:41 pm)
Wind Gust23 mph (12:43 pm)
Weather ElementAverage
Visibility8.4 mi
Wind DirectionSSW (203.2 °)

Weather ElementTotal
Precipitation---
Heating Degree Days0.6 (Base 65)
Growing Degree Days14.4 (Base 50)
Averaged from 28 records on March 23, 2013
WEATHER CONDITIONS BREAKOUT
WIND DIRECTION BREAKOUT
WEATHER BY HOUR - MARCH 23, 2013
[ °C ]   °F
Local TimeTemperatureDewpointHumidityBarometerVisibilityWind DirectionWind SpeedGust SpeedPrecipitationEventsConditions
1:43 AM51.8 °F30.2 °F44 %30.24 in9.0 miNE (40°)3.5 mphClear
2:45 AM59.0 °F31.0 °F23 %29.71 in3.0 miCalm
4:43 AM48.2 °F30.2 °F50 %30.23 in7.0 miNorth (350°)6.9 mphClear
5:45 AM55.0 °F36.0 °F38 %29.76 in3.0 miCalm
5:45 AM48.2 °F30.2 °F50 %30.25 in8.0 miNNW (340°)6.9 mphClear
6:40 AM50.0 °F32.0 °F50 %30.27 in10.0 miNW (320°)3.5 mphClear
7:41 AM57.2 °F33.8 °F41 %30.30 in9.0 miCalmClear
8:40 AM60.8 °F33.8 °F36 %30.32 in8.0 miNNE (20°)3.5 mphClear
8:50 AM65.0 °F40.0 °F29 %29.87 in12.0 miESE (120°)2.2 mph
9:42 AM66.2 °F35.6 °F32 %30.32 in8.0 miENE (60°)2.3 mphClear
10:43 AM71.6 °F32.0 °F23 %30.30 in8.0 miSSE (150°)6.9 mphClear
11:40 AM73.4 °F26.6 °F18 %30.27 in10.0 miNW (320°)4.6 mphClear
11:50 AM78.0 °F38.0 °F14 %29.81 in12.0 miSSW (210°)4.5 mph
12:43 PM77.0 °F23.0 °F13 %30.21 in9.0 miEast (90°)11.5 mph23.0 mphClear
1:42 PM78.8 °F24.8 °F14 %30.18 in9.0 miNW (310°)9.2 mphPartly Cloudy
2:42 PM78.8 °F26.6 °F15 %30.15 in9.0 miSW (220°)13.8 mphPartly Cloudy
2:50 PM80.0 °F44.0 °F18 %29.64 in12.0 miSouth (180°)6.7 mphScattered Clouds
3:43 PM80.6 °F26.6 °F14 %30.13 in8.0 miSE (140°)4.6 mphScattered Clouds
4:40 PM78.8 °F24.8 °F14 %30.13 in9.0 miWSW (250°)20.7 mphScattered Clouds
5:40 PM77.0 °F33.0 °F11 %29.55 in12.0 miSSW (210°)6.7 mphScattered Clouds
5:41 PM75.2 °F26.6 °F17 %30.15 in9.0 miWSW (240°)21.9 mphPartly Cloudy
6:41 PM69.8 °F26.6 °F20 %30.17 in9.0 miSW (230°)10.4 mphClear
7:41 PM68.0 °F26.6 °F21 %30.20 in9.0 miSW (230°)13.8 mphClear
8:41 PM68.0 °F24.8 °F20 %30.22 in9.0 miWest (270°)17.3 mphClear
8:45 PM70.0 °F30.0 °F13 %29.57 in3.0 miSSW (210°)6.7 mph
9:44 PM64.4 °F24.8 °F22 %30.24 in9.0 miSW (220°)12.7 mphClear
11:40 PM53.6 °F26.6 °F35 %30.25 in9.0 miNorth (350°)8.1 mphClear
11:45 PM65.0 °F29.0 °F15 %29.62 in3.0 miCalm
Hourly data recorded from MMPB, located miles away from San Baltazar Tetela, Puebla







STORIES FROM OUR PARTNERS